www.pogodaiklimat.ru
ПОГОДА в Хапаранда аэропорту
Время
(UTC), дата
16 11.02
17 11.02
18 11.02
20 11.02
19 11.02
21 11.02
22 11.02
23 11.02
00 12.02
02 12.02
01 12.02
03 12.02
04 12.02
05 12.02
06 12.02
08 12.02
07 12.02
09 12.02
10 12.02
11 12.02
12 12.02
14 12.02
13 12.02
15 12.02
16 12.02
17 12.02
18 12.02
20 12.02
19 12.02
21 12.02
22 12.02
23 12.02
00 13.02
02 13.02
01 13.02
03 13.02
04 13.02
05 13.02
06 13.02
08 13.02
07 13.02
09 13.02
10 13.02
11 13.02
12 13.02
14 13.02
13 13.02
15 13.02
16 13.02
17 13.02
18 13.02
20 13.02
19 13.02
21 13.02
22 13.02
23 13.02
00 14.02
02 14.02
01 14.02
03 14.02
04 14.02
05 14.02
06 14.02
08 14.02
07 14.02
09 14.02
10 14.02
11 14.02
12 14.02
14 14.02
13 14.02
15 14.02
16 14.02
17 14.02
18 14.02
20 14.02
19 14.02
21 14.02
22 14.02
23 14.02
00 15.02
02 15.02
01 15.02
03 15.02
04 15.02
05 15.02
06 15.02
08 15.02
07 15.02
09 15.02
10 15.02
11 15.02
12 15.02
14 15.02
13 15.02
15 15.02
16 15.02
17 15.02
18 15.02
20 15.02
19 15.02
21 15.02
22 15.02
23 15.02
00 16.02
02 16.02
01 16.02
03 16.02
04 16.02
05 16.02
06 16.02
08 16.02
07 16.02
09 16.02
10 16.02
11 16.02
12 16.02
14 16.02
13 16.02
15 16.02
16 16.02
17 16.02
18 16.02
20 16.02
19 16.02
21 16.02
22 16.02
23 16.02
00 17.02
02 17.02
01 17.02
03 17.02
04 17.02
05 17.02
06 17.02
08 17.02
07 17.02
09 17.02
10 17.02
11 17.02
12 17.02
14 17.02
13 17.02
15 17.02
16 17.02
17 17.02
18 17.02
20 17.02
19 17.02
21 17.02
22 17.02
23 17.02
00 18.02
02 18.02
01 18.02
03 18.02
04 18.02
05 18.02
06 18.02
08 18.02
07 18.02
09 18.02
10 18.02
11 18.02
12 18.02
14 18.02
13 18.02
15 18.02
16 18.02
17 18.02
Ветер
(напр.,м/с)
Видим. Явления Облачность Т
(С)
Тd
(С)
f
(%)
Тe
(С)
Тes
(С)
Комфортность P
(гПа)
Po
(гПа)
Тmin
(С)
Tmax
(С)
R
(мм)
R24
(мм)
S
(см)
ЮЗ 2
{4}
50 км 4/0
[]
+0.4 -0.6 93 -3 -3 962.7 960.9
ЮЗ 2
{4}
50 км ясно -0.2 -0.9 95 -4 -4 963.7 961.9
ЮЗ 2
{5}
50 км ясно -0.2 -1.2 93 -4 -4 964.3 962.5 +1.9
Ю 2
{5}
50 км ясно -1.2 -2.0 94 -5 -5 965.9 964.0
ЮЗ 2
{5}
50 км ясно -0.6 -1.5 94 -4 -4 965.0 963.2
ЮЗ 1
{4}
50 км 9/0
[]
-0.9 -1.7 94 -3 -3 966.6 964.8
ЮЗ 2
{3}
50 км ясно -1.4 -2.1 95 -5 -5 967.5 965.7
Ю 2
{3}
50 км ясно -2.7 -3.2 96 -7 -7 968.3 966.5
Ю 2
{4}
50 км ясно -2.6 -3.1 96 -7 -7 969.0 967.1
Ю 2
{4}
50 км ясно -2.6 -2.9 98 -7 -7 970.2 968.4
Ю 2
{4}
50 км ясно -2.7 -2.9 99 -7 -7 969.3 967.5
ЮЗ 2 50 км ясно -2.8 -3.0 99 -7 -7 970.8 969.0
Ю 2
{4}
50 км ясно -3.4 -3.6 99 -8 -8 971.5 969.6
Ю 3
{4}
50 км ясно -2.8 -3.1 98 -8 -8 972.3 970.5
Ю 2
{4}
50 км 5/5 150 м
[]
-2.3 -2.7 97 -6 -6 973.0 971.2 -3.7 -0.1
Ю 3
{9}
50 км 10/10 120 м
[]
-0.3 -0.7 97 -5 -5 974.7 972.9
Ю 4
{9}
50 км 10/10 90 м
[]
-0.7 -1.0 98 -7 -7 973.9 972.1
Ю 4
{8}
50 км 10/10 120 м
[]
-0.5 -0.9 97 -6 -6 975.6 973.8
Ю 4
{7}
50 км 10/10 120 м
[]
-0.5 -1.2 95 -6 -6 976.4 974.5
Ю 2
{7}
50 км 10/10 240 м
[]
-0.1 -1.0 94 -4 -4 977.0 975.1
Ю 3
{7}
50 км 10/10 360 м
[]
+0.4 -1.1 90 -4 -4 977.3 975.5
Ю 2
{5}
50 км 10/10 480 м
[]
+0.3 -1.3 89 -3 -3 978.8 977.0
Ю 2
{7}
50 км 10/10 360 м
[]
+0.4 -1.1 90 -3 -3 978.1 976.3
Ю 2
{5}
50 км 10/10 500 м
[]
+0.2 -1.0 92 -4 -4 979.4 977.6
Ю 3
{6}
5000 м осадки 10/9 600 м
[]
+0.1 -1.1 92 -5 -5 979.9 978.0 0.0
Ю 2
{5}
35 км в посл. час переохл. осадки (гололёд) 10/9 420 м
[]
-0.1 -0.7 96 -4 -4 980.6 978.7 0.0
Ю 2
{6}
30 км в посл. час снег {ливн. осадки} 10/4 400 м
[]
-0.2 -0.7 96 -4 -4 981.0 979.1 -2.4 +0.5
Ю 2
{4}
23 км в посл. час дождь {ливн. осадки} 10/10 90 м
[]
+0.2 -0.2 97 -4 -4 981.6 979.8
Ю 2
{4}
12 км слаб. дождь со снегом 10/10 240 м
[]
0.0 -0.5 96 -4 -4 981.4 979.5
Ю 1
{4}
22 км {ливн. осадки, дождь} 10/10 90 м
[]
+0.2 -0.2 97 -2 -2 982.1 980.2
Ю 2
{4}
20 км {ливн. осадки, дождь} 10/10 90 м
[]
+0.2 -0.1 98 -4 -4 982.6 980.7
Ю 2
{5}
30 км {ливн. осадки, дождь} 10/10 90 м
[]
+0.2 -0.1 98 -4 -4 983.3 981.5
Ю 2
{4}
40 км {ливн. осадки, дождь} 10/1 90 м
[]
0.0 -0.3 98 -4 -4 983.7 981.8
Ю 1
{3}
21 км {ливн. осадки, снег} 10/3 90 м
[]
-0.2 -0.4 99 -2 -2 984.8 982.9
Ю 2
{4}
24 км в посл. час снег {ливн. осадки} 10/6 90 м
[]
0.0 -0.3 98 -4 -4 984.2 982.4
Ю 1
{2}
26 км {ливн. осадки, снег} 10/4 60 м
[]
-0.3 -0.5 99 -3 -3 985.4 983.6
Ю 1
{2}
26 км {ливн. осадки, снег} 10/4 60 м
[]
-0.3 -0.5 99 -3 -3 986.1 984.3
ЮЗ 1
{2}
18 км {ливн. осадки, снег} 10/10 540 м
[]
-0.5 -0.7 99 -3 -3 986.9 985.1
ЮЗ 1
{1}
11 км слаб. ливневой снег 10/10 570 м
[]
-0.8 -1.0 99 -3 -3 987.7 985.8 -0.8 +0.3 0.0
С 1
{2}
30 км {ливн. осадки, метель} 9/9 700 м
[]
-1.0 -1.2 99 -3 -3 989.2 987.3
СЗ 1
{1}
23 км в посл. час снег {ливн. осадки, метель} 10/10 630 м
[]
-1.0 -1.2 99 -3 -3 988.2 986.4 0.0
С 2
{2}
50 км {ливн. осадки, метель} 10/1 180 м
[]
-0.5 -1.2 95 -4 -4 990.0 988.2
С 1
{3}
45 км {ливн. осадки, метель} 10/10 570 м
[]
-0.3 -1.8 90 -2 -2 990.8 988.9
С 2
{3}
19 км {ливн. осадки, метель} 10/1 210 м
[]
-0.3 -2.1 88 -4 -4 991.7 989.8
С 2
{3}
45 км {ливн. осадки, метель} 10/10 630 м
[]
-0.2 -2.2 86 -4 -4 992.5 990.6
С 1
{3}
50 км 10/10 600 м
[]
-0.5 -2.5 86 -3 -3 994.0 992.1
С 2
{3}
50 км 10/10 630 м
[]
-0.3 -2.3 86 -4 -4 993.1 991.3
С 1
{3}
50 км 10/10 630 м
[]
-0.8 -2.4 89 -3 -3 994.5 992.7
С 1
{3}
50 км 10/10 600 м
[]
-0.9 -2.4 90 -3 -3 995.1 993.2
С 1
{3}
50 км 10/10 630 м
[]
-1.2 -2.5 91 -3 -3 995.6 993.7
З 1
{2}
50 км 10/10 660 м
[]
-1.3 -2.6 91 -4 -4 996.4 994.5 -1.4 -0.2
З 1
{2}
50 км 10/10 600 м
[]
-1.6 -2.9 91 -4 -4 997.6 995.7
СЗ 1
{2}
50 км 10/10 630 м
[]
-1.4 -2.8 90 -4 -4 996.9 995.0
СЗ 1
{2}
45 км 10/10 570 м
[]
-1.7 -2.8 92 -4 -4 998.3 996.4
штиль 0
{3}
50 км 10/10 660 м
[]
-1.9 -3.0 92 -3 -3 998.7 996.8
З 1
{2}
50 км 10/10 660 м
[]
-2.0 -2.9 94 -4 -4 999.1 997.3
ЮЗ 1
{2}
50 км 10/10 400 м
[]
-2.1 -3.1 93 -4 -4 999.8 998.0
ЮЗ 1
{3}
50 км 10/10 270 м
[]
-3.2 -4.7 89 -6 -6 1001.1 999.2
З 2
{4}
50 км 10/6 400 м
[]
-2.7 -4.2 89 -7 -7 1000.7 998.8
ЮЗ 1
{2}
50 км 10/10 270 м
[]
-3.3 -4.8 89 -6 -6 1001.8 999.9
З 1
{3}
50 км 10/10 270 м
[]
-3.6 -5.2 89 -6 -6 1002.3 1000.4
З 1
{3}
50 км 10/10 270 м
[]
-4.2 -5.8 89 -7 -7 1003.0 1001.2
З 1
{4}
50 км 10/10 180 м
[]
-4.7 -5.9 91 -7 -7 1003.6 1001.8 -4.7 -1.3
ЮЗ 1 16 км 10/10 60 м
[]
-6.1 -6.7 96 -9 -9 1004.8 1002.9
З 1
{4}
50 км 10/10 90 м
[]
-5.6 -6.4 94 -8 -8 1004.3 1002.4
З 1
{4}
5000 м дымка 10/10 60 м
[]
-6.3 -6.9 95 -9 -9 1005.5 1003.6
Ю 1
{3}
5000 м дымка ?/? -7.0 -7.8 94 -9 -9 1006.2 1004.3
З 1
{3}
12 км 10/10 60 м
[]
-7.2 -8.3 92 -10 -10 1006.9 1005.0
ЮЗ 2
{4}
50 км {дымка} 10/10 120 м
[]
-7.3 -8.6 90 -12 -12 1007.9 1006.0
Ю 1
{2}
50 км ясно -8.5 -10.3 87 -11 -11 1008.5 1006.6
Ю 1
{3}
50 км 4/0
[]
-6.9 -9.1 84 -9 -9 1008.2 1006.2
Ю 1
{3}
50 км ясно -10.5 -11.6 92 -13 -13 1009.3 1007.4
Ю 1
{2}
50 км ясно -11.5 -12.4 93 -14 -14 1009.5 1007.6
ЮЗ 1
{3}
50 км ясно -12.2 -13.5 90 -14 -14 1009.8 1007.9
В 1
{2}
50 км ясно -13.0 -14.3 90 -15 -15 1009.8 1007.8 -13.0 -4.7
З 2
{5}
50 км ясно -8.4 -9.5 92 -13 -13 1009.6 1007.7
ЮЗ 1
{2}
50 км ясно -12.7 -13.8 91 -15 -15 1009.5 1007.6
З 2
{4}
50 км ясно -8.3 -9.4 92 -13 -13 1009.6 1007.6
ЮЗ 1
{5}
50 км ясно -10.0 -11.7 87 -12 -12 1009.6 1007.7
ЮЗ 1
{2}
50 км ясно -11.2 -12.1 93 -13 -13 1009.6 1007.7
ЮЗ 2
{2}
50 км ясно -11.8 -13.1 90 -16 -16 1009.4 1007.4
ЮВ 1
{2}
50 км 3/0
[]
-11.2 -12.6 89 -13 -13 1008.5 1006.6
ЮЗ 1
{2}
50 км 1/0
[]
-10.1 -11.2 92 -12 -12 1008.9 1007.0
В 1
{3}
50 км 4/0
[]
-10.9 -12.3 89 -13 -13 1007.8 1005.8
ЮВ 2
{3}
50 км 1/1 330 м
[]
-7.4 -8.1 95 -12 -12 1006.8 1004.9
ЮВ 1
{3}
50 км 9/9 240 м
[]
-5.8 -6.4 96 -8 -8 1006.0 1004.1
ЮВ 3
{6}
26 км 10/10 120 м
[]
-2.7 -3.3 96 -8 -8 1005.2 1003.4 -13.6 -2.5
ЮВ 3
{7}
2200 м осадки 10/10 210 м
[]
-2.7 -3.3 96 -8 -8 1003.5 1001.7 0.4
ЮВ 3
{8}
30 км 10/10 240 м
[]
-2.8 -3.4 96 -8 -8 1004.6 1002.7
ЮВ 3
{7}
1800 м слаб. снег {осадки} 10/9 180 м
[]
-2.2 -2.7 96 -7 -7 1002.7 1000.8 0.3
ЮВ 3
{7}
1600 м осадки 10/10 180 м
[]
-2.2 -2.6 97 -8 -8 1002.0 1000.1 0.3
ЮВ 4
{9}
600 м снег {осадки} 10/4 120 м
[]
-1.7 -2.0 98 -8 -8 1000.8 998.9 1
Ю 4
{9}
700 м снег {осадки} 8/8 120 м
[]
-1.1 -1.3 99 -7 -7 999.9 998.1 1
Ю 3
{9}
3400 м слаб. дождь со снегом 10/10 60 м
[]
0.0 -0.2 99 -5 -5 998.7 996.8 0.2
Ю 4
{9}
2400 м осадки 10/10 90 м
[]
-0.4 -0.5 99 -6 -6 999.1 997.2 0.5
ЮЗ 2
{6}
22 км в посл. час дождь 9/9 60 м
[]
0.0 -0.1 99 -4 -4 998.6 996.8
ЮЗ 2
{4}
35 км {снег, дождь} 9/9 120 м
[]
-0.5 -0.7 99 -4 -4 998.5 996.6
Ю 1
{4}
20 км {снег, дождь} 9/8 90 м
[]
-1.6 -1.8 99 -4 -4 998.6 996.7
Ю 1
{3}
40 км {снег, дождь} 10/10 570 м
[]
-2.0 -2.2 99 -4 -4 998.7 996.9 -2.9 +0.1
штиль 0
{2}
28 км 10/9 30 м
[]
-1.8 -2.1 98 -3 -3 998.4 996.5
Ю 1
{3}
35 км 10/1 30 м
[]
-2.0 -2.2 99 -4 -4 998.4 996.5
СВ 1
{1}
1700 м дымка ?/? -1.8 -2.0 99 -4 -4 998.2 996.3
ЮВ 1
{2}
1000 м туман {дымка} ?/? -1.7 -1.9 99 -4 -4 998.3 996.4
З 1
{3}
12 км в посл. час туман 10/10 90 м
[]
-0.7 -0.9 99 -3 -3 998.1 996.3
ЮЗ 2
{4}
24 км {туман, метель} 10/10 90 м
[]
-0.8 -0.9 99 -5 -5 998.3 996.4
Ю 1
{3}
25 км 10/10 90 м
[]
-1.5 -1.7 99 -4 -4 997.7 995.8
ЮЗ 1
{3}
30 км 10/10 90 м
[]
-1.1 -1.2 99 -3 -3 998.2 996.3
Ю 1
{2}
13 км 10/10 60 м
[]
-1.7 -1.9 99 -4 -4 997.4 995.5
ЮВ 1
{4}
1600 м дымка ?/? -2.2 -2.5 98 -5 -5 996.7 994.9
ЮВ 1
{3}
9000 м 10/10 60 м
[]
-1.9 -2.2 98 -4 -4 995.9 994.1
ЮВ 2
{5}
2400 м слаб. ливневой снег {метель} 10/10 60 м
[]
-2.4 -2.7 98 -7 -7 994.9 993.1 -2.4 -0.7 0.0
ЮВ 3
{8}
2700 м снежные зёрна {ливн. осадки} 10/10 60 м
[]
-1.4 -1.6 99 -7 -7 992.8 990.9
Ю 3
{7}
5000 м в посл. час снег {ливн. осадки, метель} 10/10 30 м
[]
-0.4 -0.6 99 -5 -5 993.5 991.6
ЮВ 4
{11}
24 км в посл. час снег {ливн. осадки} 10/10 90 м
[]
-0.2 -0.4 99 -6 -6 990.8 988.9
ЮВ 5
{11}
30 км {ливн. осадки, снег} 10/10 150 м
[]
+0.1 -0.1 99 -6 -6 988.7 986.9
ЮВ 5
{12}
700 м снег {ливн. осадки} 10/5 120 м
[]
+0.1 -0.1 99 -6 -6 985.4 983.6 1
ЮВ 5
{14}
700 м снег {ливн. осадки} 8/8 90 м
[]
+0.2 +0.1 99 -6 -6 983.1 981.3 3
ЮВ 5
{15}
7000 м дождь {снег} 10/10 90 м
[]
+0.5 +0.3 99 -6 -6 978.7 976.9 0.8
ЮВ 6
{14}
3300 м слаб. дождь со снегом 10/10 90 м
[]
+0.3 +0.1 99 -7 -7 980.8 978.9 2
ЮВ 6
{14}
18 км в посл. час дождь 10/10 90 м
[]
+0.9 +0.7 99 -6 -6 976.9 975.1
ЮВ 6
{11}
7000 м слаб. морось {дождь} 10/10 90 м
[]
+1.3 +1.1 99 -5 -5 974.7 972.9 0.1
Ю 5
{13}
5000 м дождь {снег} 10/10 90 м
[]
+1.3 +1.2 99 -5 -5 973.4 971.6 2
ЮВ 5
{12}
1300 м дождь со снегом 10/10 120 м
[]
+0.7 +0.6 99 -5 -5 971.7 969.9 -2.4 +1.4 2
ЮВ 4
{11}
500 м снег {дождь} ?/? +0.2 0.0 99 -5 -5 965.3 963.5 4
ЮВ 4
{12}
1800 м слаб. снег {дождь} 10/10 90 м
[]
+0.3 +0.1 99 -5 -5 968.9 967.1 3
ЮВ 4
{11}
3900 м слаб. дождь со снегом 8/8 120 м
[]
+0.5 +0.2 98 -5 -5 962.4 960.6 3
Ю 6
{11}
4500 м слаб. дождь 10/10 90 м
[]
+2.3 +2.1 99 -4 -4 960.2 958.4 2
Ю 6
{13}
5000 м слаб. ливневой дождь 10/10 60 м
[]
+1.8 +1.7 99 -5 -5 959.5 957.7 0.8
ЮЗ 5
{12}
50 км в посл. час дождь {ливн. осадки} 10/10 120 м
[]
+1.1 +0.9 99 -5 -5 959.3 957.5
ЮЗ 4
{8}
3400 м слаб. снег {дождь} 10/10 150 м
[]
+0.3 +0.1 99 -5 -5 960.9 959.1 0.4
ЮЗ 4
{11}
4000 м слаб. снег {дождь} 10/10 90 м
[]
+0.3 +0.1 99 -5 -5 959.7 957.9 0.9
ЮЗ 4
{9}
14 км слаб. снег {дождь} 10/10 150 м
[]
+0.4 +0.2 99 -5 -5 962.1 960.3 0.1
З 3
{7}
50 км в посл. час снег {дождь} 10/10 180 м
[]
+0.5 +0.3 99 -4 -4 963.4 961.6
З 3
{8}
50 км {снег, дождь} 10/10 210 м
[]
+0.1 0.0 99 -5 -5 964.3 962.5
З 4
{8}
50 км {снег, дождь} 9/5
[]
-0.3 -0.4 99 -6 -6 965.3 963.5 -0.3 +2.5
В 1
{5}
50 км ясно -0.7 -1.1 97 -3 -2 966.1 964.3
З 2
{8}
50 км 6/0
[]
-0.6 -1.1 96 -5 -4 966.0 964.2
ЮЗ 3
{6}
50 км ясно -0.5 -1.4 94 -5 -5 967.7 965.9
З 2
{5}
50 км ясно +0.1 -1.2 91 -4 -3 967.9 966.1
З 2
{6}
45 км ясно +1.4 -0.4 88 -2 -1 968.3 966.5
ЮЗ 3
{6}
50 км ясно +0.8 -0.8 89 -4 -3 969.2 967.4
ЮЗ 3
{6}
50 км 4/0
[]
-0.1 -0.7 96 -5 -5 969.8 968.0
ЮЗ 3
{6}
40 км 1/0
[]
-0.2 -0.8 96 -5 -5 969.5 967.7
ЮЗ 3
{7}
50 км 1/0
[]
-0.4 -0.9 96 -5 -5 970.1 968.3
ЮЗ 3
{6}
50 км ясно -0.7 -1.3 96 -6 -6 970.4 968.6
ЮЗ 3
{6}
50 км ясно -0.9 -1.3 97 -6 -6 970.4 968.6
ЮЗ 3
{6}
45 км ясно -0.9 -1.5 96 -6 -6 970.8 969.0 -1.3 +1.5
ЮЗ 3
{7}
25 км ясно -1.0 -1.6 96 -6 -6 971.1 969.3
ЮЗ 3
{6}
30 км ясно -1.0 -1.5 96 -6 -6 971.1 969.2
Ю 2
{6}
14 км ясно -2.2 -2.7 96 -6 -6 971.4 969.6
Ю 2
{5}
11 км 9/4 660 м
[]
-1.9 -2.1 99 -6 -6 971.5 969.7
Ю 1
{3}
11 км 3/0
[]
-3.1 -3.5 97 -6 -6 971.5 969.6
ЮВ 1
{2}
2700 м дымка ?/? -3.1 -3.4 98 -6 -6 971.5 969.6
З 1
{2}
700 м туман {дымка} ?/? -1.8 -2.0 99 -4 -4 971.7 969.9
штиль 0
{2}
5000 м дымка ?/? -2.4 -2.6 99 -4 -4 971.6 969.8
В 1
{2}
400 м туман {дымка} ?/? -1.8 -2.0 99 -4 -4 971.8 969.9
ЮЗ 1
{2}
200 м туман {дымка} ?/? -1.4 -1.6 99 -4 -4 972.2 970.4
СЗ 1
{2}
700 м туман {дымка} ?/? -1.7 -1.8 99 -4 -4 972.5 970.7
ЮЗ 1
{2}
5000 м в посл. час туман ?/? -1.7 -1.9 99 -4 -4 973.1 971.2 -3.4 -0.6
ЮЗ 1
{2}
22 км в посл. час переохл. осадки (гололёд) 10/10 240 м
[]
-1.6 -1.8 99 -4 -4 974.4 972.5 0.0
СЗ 1
{3}
н/о 10/10 150 м
[]
-1.8 -2.0 99 -4 -4 973.4 971.6
ЮЗ 1
{3}
40 км {ливн. осадки, дождь} 10/10 360 м
[]
-1.1 -1.5 97 -3 -3 975.0 973.2
ЮЗ 2
{3}
50 км {ливн. осадки, дождь} 10/10 210 м
[]
-0.2 -0.8 96 -4 -4 975.5 973.7
ЮЗ 1
{3}
35 км {ливн. осадки, дождь} 10/9 120 м
[]
+0.2 -0.2 97 -2 -2 976.0 974.2
Ю 1
{3}
45 км {ливн. осадки, дождь} 5/5 180 м
[]
+0.2 -0.8 93 -2 -1 976.6 974.8
Ю 1
{4}
45 км 1/1 1350 м
[]
-1.4 -2.2 94 -4 -4 977.8 976.0
ЮЗ 2
{5}
45 км ясно -0.2 -1.4 92 -4 -4 977.3 975.5
Ю 1
{2}
23 км 9/6 1500 м
[]
-2.3 -2.8 96 -5 -5 978.0 976.2
ЮВ 1
{2}
29 км 9/9 870 м
[]
-2.9 -3.2 98 -5 -5 978.4 976.5
ЮВ 1
{2}
45 км 10/10 800 м
[]
-2.3 -2.6 98 -5 -5 978.8 976.9
Местоположение метеостанции Хапаранда аэропорт (Швеция): широта 65.82 долгота 24.12 высота над уровнем моря 15 м.
В архиве по умолчанию представлена погода в Хапаранда аэропорту за последнюю неделю. Архивные данные за месяц целиком и за предыдущие месяцы, начиная с января 2011 года, Вы можете получить, выбрав интересующий диапазон дат из раскрывающегося списка и нажав кнопку "Найти!".
*Определитесь, кто Вы:
Внимание! Время в таблицах - всемирное. Для получения местного времени необходимо прибавить поправку, которая равна 1 ч.
Смотрите также архив погоды в соседних городах и на ближайших метеорологических станциях:
Партнеры нашего сайта:      
Пояснения к столбцам:
  • Ветер - указаны скорость ветра в м/с - средняя за 10 мин, порывы в срок и между сроками (в фигурных скобках) и направление, откуда дует ветер: С - северный,
  • СВ - северо-восточный, В - восточный, ЮВ - юго-восточный, Ю - южный, ЮЗ - юго-западный, З - западный, СЗ - северо-западный.
  • Видимость - горизонтальная дальность видимости в метрах или километрах. При видимости от 1 до 10 км при отсутствии осадков обычно наблюдается дымка, при ухудшении видимости до 1 км и менее - туман. В сухую погоду видимость может ухудшаться дымом, пылью или мглою.
  • Явления - указаны атмосферные явления, наблюдавшиеся в срок или в последний час перед сроком; фигурными скобками обозначены явления, наблюдавшиеся между сроками (за 1-3 часа до срока); квадратными скобками обозначены град или гололедные отложения с указанием их диаметра в мм.
  • Облачность - указаны через наклонную черту общая и нижняя облачность в баллах и высота нижней границы облаков в метрах; квадратными скобками обозначены формы облаков: Ci - перистые, Cs - перисто-слоистые, Cc - перисто-кучевые, Ac - высококучевые, As - высокослоистые, Sc - слоисто-кучевые, Ns - слоисто-дождевые, Cu - кучевые, Cb - кучево-дождевые. Подробнее классификацию облаков см. в Атласе облаков (PDF).
  • T - Температура воздуха - температура, измеренная на высоте 2 м над землей.
  • Td - Температура точки росы - температура, при понижении до которой содержащийся в воздухе водяной пар достигнет насыщения.
  • f - Относительная влажность воздуха - влажноcть воздуха, измеренная на высоте 2 м над землей.
  • Te - Эффективная температура - температура, которую ощущает одетый по сезону человек в тени. Характеристика душности погоды. При расчете учитывается влияние влажности воздуха и скорости ветра на теплоощущения человека.
  • Tes - Эффективная температура на солнце - температура, которую ощущает человек, с поправкой на солнечный нагрев. Характеристика знойности погоды. Зависит от высоты солнца над горизонтом, облачности и скорости ветра. Ночью, в пасмурную погоду, а также при ветре 12 м/с и более поправка равна нулю.
  • P - Атмосферное давление - приведенное к уровню моря атмосферное давление.
  • Po - Атмосферное давление - измеренное на уровне метеостанции атмосферное давление.
  • Tmin - Минимальная температура - минимум температуры воздуха на высоте 2 м над землей.
  • Tmax - Максимальная температура - максимум температуры воздуха на высоте 2 м над землей.
  • R - Количество осадков - Количество выпавших осадков за период времени, мм. При наведении курсора мыши на число - период времени, за который выпало указанное количество осадков.
  • R24 - Количество осадков - Количество выпавших осадков за 24 часа, мм.
  • S - Снежный покров - Высота снежного покрова, см. При наведении курсора мыши на число - состояние снежного покрова и степень покрытия местности в баллах.